Temperature
19 19 19 19 17 17 18 19 19 19 18 18 19 18 18 17 18 17 17 17 17 17 17 17 17 17 17 17 17 17 17 17 17 17 17 17 17 17 17 17 17 17 17 17 17 17 17 17 17
19 19 19 19 17 18 19 19 19 19 19 19 18 18 17 17 17 17 17 17 17 17 17 17 17 17 17 17 17 17 17 17 17 17 17 17 17 17 17 17 17 17 17 17 17 17 17 17 17
19 19 19 17 17 18 19 19 18 19 19 19 18 18 17 17 17 17 17 17 17 17 17 17 17 17 17 17 17 17 17 17 17 17 17 16 16 16 16 16 16 16 17 17 17 17 17 17 17
19 19 19 17 18 18 19 19 19 19 19 19 18 17 17 17 17 17 17 17 17 17 17 17 17 17 17 17 17 17 17 17 16 16 16 16 16 16 16 16 16 16 16 16 16 16 17 17 17
20 20 17 17 18 19 18 19 19 19 18 18 18 17 17 17 17 17 17 17 17 17 17 17 17 17 17 17 17 17 16 16 16 16 16 16 16 16 16 16 16 16 16 16 16 16 16 16 17
20 18 17 18 18 19 18 19 19 18 18 18 18 17 17 17 17 17 17 17 17 17 17 17 17 17 17 17 17 16 16 16 16 16 16 16 16 16 16 16 16 16 16 16 16 16 16 16 16
19 16 17 18 18 19 19 19 19 18 18 18 18 17 17 17 17 17 17 17 17 17 17 17 17 17 16 16 16 16 16 16 16 16 16 16 16 16 16 16 16 16 16 16 16 16 16 16 16
20 16 18 18 18 19 19 19 19 19 18 18 18 17 17 17 17 17 17 17 17 17 17 17 17 17 16 16 16 16 16 16 16 16 16 16 16 16 16 16 16 16 16 16 16 16 16 16 16
20 16 17 18 18 19 19 19 19 19 18 18 18 18 18 18 17 17 17 17 17 17 17 17 17 17 17 16 16 16 16 16 16 16 16 16 16 16 16 16 16 16 16 16 16 16 16 16 16
19 17 19 19 19 19 19 19 19 19 18 18 18 18 18 18 17 17 17 17 17 17 17 17 17 17 17 17 16 16 16 16 16 16 16 16 16 16 16 16 16 16 16 16 16 16 16 16 16
19 18 19 19 20 19 19 19 19 18 18 18 18 18 18 18 17 17 17 17 17 17 17 17 17 17 17 17 16 16 16 16 16 16 16 16 16 16 16 16 16 16 16 16 16 16 16 16 16
19 19 19 20 20 20 19 19 18 18 19 19 19 18 18 18 17 17 17 17 17 17 17 17 17 17 17 17 17 16 16 16 16 16 16 16 16 16 16 16 16 16 16 16 16 16 16 15 15
19 19 20 20 20 19 19 18 18 18 19 19 18 18 18 18 18 18 17 17 17 17 17 17 17 17 17 17 17 17 16 16 16 16 16 16 16 16 16 16 16 16 16 15 15 15 15 15 15
19 19 19 20 20 19 19 18 18 18 18 18 18 18 18 18 18 18 17 18 18 18 17 17 17 17 17 17 17 17 16 16 16 16 16 16 16 16 16 16 16 16 15 15 15 15 15 15 15
20 19 19 19 19 19 19 18 18 18 18 18 18 18 18 18 18 18 18 18 18 18 17 17 17 17 17 17 17 17 16 16 16 16 16 16 16 16 16 16 16 15 15 15 15 15 15 15 15
19 18 18 19 19 19 19 18 18 18 18 18 18 18 18 18 18 18 18 18 18 17 17 17 17 17 17 17 17 16 16 16 16 16 16 16 16 16 15 15 15 15 15 15 15 15 15 15 15
17 17 18 18 19 19 18 18 17 18 18 17 18 18 18 18 18 18 18 18 18 18 17 17 17 17 17 17 17 16 16 16 16 16 16 16 16 16 15 15 15 15 15 15 15 15 15 15 15
18 17 18 18 19 18 18 17 17 17 17 17 18 18 18 18 18 18 18 18 18 18 17 17 17 17 17 17 17 16 16 16 16 16 16 16 16 15 15 15 15 15 15 15 15 15 15 15 15
18 18 18 18 19 18 17 17 17 17 17 17 17 17 18 18 18 18 18 18 18 17 17 17 17 17 17 17 17 16 16 16 16 16 16 16 15 15 15 15 15 15 15 15 15 15 15 15 14
18 18 18 18 19 18 17 17 17 16 16 17 17 17 17 18 18 18 18 17 17 17 17 17 17 17 17 17 16 16 16 16 16 16 16 15 15 15 15 15 15 15 15 15 15 15 15 15 14
18 18 18 18 18 18 18 17 17 17 17 17 17 17 18 18 18 18 18 17 17 17 17 17 17 17 17 17 16 16 16 16 16 16 15 15 15 15 15 15 15 15 15 15 15 15 15 15 14
18 19 19 18 17 16 17 16 16 16 16 16 17 17 17 18 18 18 18 17 17 17 17 17 17 17 17 17 16 16 16 16 16 16 15 15 15 15 15 15 15 15 15 15 15 15 15 14 14
18 19 18 18 17 16 16 16 16 16 16 16 16 17 18 18 18 18 18 18 18 17 17 17 17 17 16 16 16 16 16 16 16 15 15 15 15 15 15 15 15 15 15 15 15 15 15 14 14
18 17 17 15 15 16 16 16 16 15 16 16 17 18 18 18 18 18 18 18 18 17 17 17 17 16 16 16 16 16 16 16 15 15 15 15 15 15 15 15 15 15 15 15 15 15 14 14 14
17 16 16 16 15 15 16 16 16 17 16 17 17 18 18 18 18 18 18 18 17 17 17 17 17 17 16 16 16 16 16 15 15 15 15 15 15 15 15 15 15 15 15 15 14 14 14 14 14
17 16 16 16 16 15 16 16 16 17 17 18 18 18 18 18 18 18 18 18 18 17 17 17 17 17 16 16 16 16 16 15 15 15 15 15 15 15 15 15 15 15 15 14 14 14 14 14 14
17 16 16 15 16 16 16 16 17 18 17 17 17 17 18 18 18 18 18 18 18 18 17 17 17 17 16 16 16 16 15 15 15 15 15 15 15 14 14 14 14 15 15 14 14 14 14 14 14
17 16 14 15 15 15 16 16 16 18 17 16 16 17 17 18 18 18 18 18 18 18 17 17 17 17 16 16 16 16 15 15 15 15 15 15 15 14 14 14 14 14 14 14 14 14 14 14 14
17 16 15 14 14 15 15 16 17 16 17 16 16 17 18 18 18 18 18 18 18 17 17 17 17 16 16 16 16 16 15 15 15 15 15 15 15 14 14 14 14 14 14 14 14 14 14 14 14
17 16 15 15 15 14 14 15 17 16 16 16 17 17 18 18 18 17 17 17 17 17 17 17 17 16 16 16 16 16 15 15 15 15 15 15 15 14 14 14 14 14 14 14 14 14 14 14 14
Wind_Speed
2 4 3 3 5 5 2 2 0 2 3 3 4 6 6 4 2 2 0 2 2 2 2 4 6 7 8 9 9 9 10 11 11 11 11 11 10 10 10 10 10 10 11 11 11 11 12 11 10
2 2 4 4 5 3 2 2 2 2 4 3 5 5 6 4 3 3 1 2 3 3 4 3 6 7 8 9 10 10 10 10 10 11 11 10 10 10 10 10 10 11 11 11 12 12 12 12 12
1 3 4 4 4 3 1 0 3 4 4 3 3 4 4 3 2 2 1 3 4 4 4 4 7 8 8 9 10 10 10 10 10 10 10 10 9 10 10 10 10 10 11 11 11 11 12 12 13
3 4 4 5 3 0 2 2 5 5 4 4 4 5 3 2 2 3 4 5 5 3 4 5 8 8 9 9 9 9 9 9 9 9 9 8 8 9 9 10 10 10 10 10 11 11 12 12 13
4 4 5 4 2 2 1 1 2 3 3 3 3 4 3 3 5 6 5 5 4 3 4 5 8 8 8 8 9 9 9 8 8 8 8 8 8 8 9 9 9 9 10 10 10 11 12 12 12
4 4 5 2 2 2 1 2 2 4 4 3 4 4 2 2 5 5 5 4 4 3 4 5 7 8 8 8 8 8 8 8 8 8 8 7 8 8 8 8 8 8 9 9 10 11 12 12 12
4 4 3 2 1 2 1 2 3 4 4 2 3 4 2 2 4 5 5 5 4 4 5 5 6 6 7 7 7 6 7 7 7 7 7 7 7 7 7 7 7 7 8 9 10 10 11 12 12
4 5 3 2 2 0 1 2 2 3 3 2 3 5 4 4 5 6 6 5 4 3 3 3 5 6 6 5 5 6 7 7 7 7 7 7 7 7 7 6 7 7 8 8 9 10 11 12 13
3 5 2 2 3 1 1 2 2 2 4 3 2 2 4 8 8 7 5 3 2 2 2 2 2 4 5 5 5 6 7 7 7 7 7 7 6 6 6 6 7 8 8 9 9 10 11 12 12
4 3 2 2 3 3 2 2 2 3 3 3 4 5 7 9 8 7 5 4 2 1 0 1 1 2 3 4 6 6 6 7 7 6 6 6 6 6 6 8 8 9 9 10 11 11 11 11 11
3 3 1 1 2 3 3 2 2 5 2 3 6 8 8 8 7 6 5 4 3 2 1 1 1 2 2 3 4 4 4 5 6 5 5 6 6 6 7 7 8 8 9 9 10 10 10 11 10
2 1 1 1 2 3 3 3 3 2 2 3 7 8 8 8 7 6 5 4 3 2 2 2 3 2 2 3 3 3 3 3 4 4 4 5 4 4 5 5 6 6 6 8 8 8 10 11 12
2 1 2 3 5 4 5 4 3 1 2 6 7 8 8 7 6 4 4 4 3 3 3 2 3 3 2 3 2 3 3 3 3 4 4 4 4 3 4 4 5 6 7 8 8 8 8 9 9
1 2 3 3 4 3 5 2 3 0 3 6 6 6 6 7 6 5 4 4 4 4 3 3 3 3 4 3 2 2 3 3 4 3 4 5 4 4 4 4 5 6 7 8 8 8 7 7 7
2 3 4 2 2 1 4 3 0 2 4 4 4 5 5 5 6 7 6 5 5 4 3 4 4 4 4 3 3 3 3 4 3 3 4 4 5 5 5 4 4 5 8 9 9 8 7 6 6
4 4 2 2 1 1 4 2 3 3 5 4 4 4 4 4 5 6 6 5 5 4 4 3 4 4 4 4 3 3 4 5 4 4 4 5 5 6 6 4 3 6 8 7 6 5 6 5 5
4 1 1 2 0 2 3 3 3 3 5 4 4 4 4 3 3 4 6 6 6 6 5 4 4 4 4 4 4 4 5 5 4 5 4 4 5 6 6 4 4 6 6 5 5 4 4 5 5
2 2 1 2 2 3 2 4 3 3 4 5 4 4 4 5 6 5 5 5 5 5 5 4 4 4 5 4 4 3 4 3 4 5 4 5 5 6 6 5 5 6 5 4 4 5 4 4 5
3 3 2 3 2 3 4 5 4 3 3 4 4 5 5 6 5 3 4 5 5 5 5 5 5 4 4 3 3 3 1 1 2 3 5 5 5 5 6 4 4 4 4 4 5 5 5 4 3
3 2 1 2 1 2 2 4 4 4 5 5 6 6 6 5 3 3 4 4 5 5 5 5 5 5 5 3 3 2 2 1 1 2 4 5 5 5 5 5 4 4 4 5 4 4 3 2 2
2 3 3 2 2 2 1 4 4 3 3 3 4 5 5 7 7 6 5 5 5 6 6 5 5 5 5 5 4 3 3 3 2 2 2 3 4 5 5 5 5 4 4 4 3 3 4 3 1
2 3 4 2 2 2 0 3 6 4 4 5 6 6 7 7 7 6 6 6 6 6 5 5 4 4 4 5 5 5 4 2 1 0 0 2 4 4 5 5 5 4 3 3 3 2 2 4 2
4 1 2 2 2 1 0 1 6 2 5 7 8 8 8 7 8 8 8 8 6 6 6 5 5 3 3 4 5 5 4 3 2 1 2 2 3 3 4 5 5 4 3 3 2 2 2 2 3
3 5 5 4 3 2 4 4 6 4 7 6 7 8 8 7 7 7 6 6 5 5 5 5 5 4 3 4 4 5 5 5 4 3 2 1 1 2 3 4 4 4 3 3 2 2 3 2 3
4 5 3 3 2 5 2 3 7 6 7 7 8 8 8 7 7 7 7 7 7 7 6 6 6 5 4 5 5 5 5 5 5 4 3 2 1 0 1 2 2 2 3 3 4 3 3 3 3
3 6 5 4 4 4 1 4 6 5 4 3 4 5 4 5 6 7 9 8 8 8 7 7 7 6 5 5 5 4 5 4 3 3 3 3 2 2 1 2 3 3 4 4 4 3 2 3 3
4 3 4 4 1 1 4 6 7 2 2 2 1 2 3 5 6 7 7 8 8 8 8 8 8 6 6 6 5 4 4 4 4 4 3 2 2 2 3 3 3 3 4 4 4 3 3 3 3
5 7 4 4 2 2 5 4 4 4 3 1 1 2 3 3 3 5 5 7 7 8 7 7 7 7 6 6 5 4 4 4 4 4 4 4 3 3 3 3 3 3 3 4 3 3 3 4 2
3 3 4 3 4 4 3 6 4 5 4 4 3 3 3 3 4 4 4 5 5 5 6 6 6 6 5 6 5 5 4 4 3 3 4 4 3 3 4 4 4 3 3 3 3 3 3 4 3
4 5 6 4 3 3 3 6 5 3 3 3 3 2 2 2 2 3 4 4 5 5 6 6 6 6 6 6 5 5 5 4 4 4 3 3 3 3 4 4 4 4 3 3 4 3 3 3 3
Wind_Direction
63 75 75 58 56 52 46 345 59 55 54 45 57 74 89 77 87 122 352 115 102 73 58 94 106 100 97 94 90 87 89 92 95 98 96 94 92 90 90 88 84 82 82 81 78 75 71 68 68
84 78 55 59 78 70 3 341 78 67 124 113 60 63 73 69 67 98 91 99 95 82 65 86 107 101 98 94 93 92 92 93 95 98 96 93 91 88 88 85 82 81 83 82 77 71 68 65 65
92 54 77 70 82 129 138 47 114 93 104 90 73 56 70 79 91 117 141 118 91 74 65 88 104 101 97 94 92 93 94 94 95 95 96 94 90 89 88 83 80 80 83 83 78 72 68 67 68
78 44 55 69 73 179 175 154 132 116 69 62 97 73 60 45 118 129 124 114 99 74 70 92 98 99 95 95 94 93 95 94 92 91 92 92 91 90 89 81 76 77 79 80 77 73 70 68 69
62 73 61 55 36 4 18 123 114 101 67 51 87 89 50 15 92 112 117 117 110 82 68 90 99 97 96 94 93 93 94 93 90 88 85 85 85 88 87 79 74 73 75 75 74 73 70 70 72
54 66 78 70 14 15 25 22 82 87 93 83 87 95 59 73 106 115 114 111 105 92 66 69 92 95 94 91 90 88 88 89 86 84 81 79 79 80 82 77 73 71 73 74 73 71 70 73 77
96 87 102 105 54 35 58 60 93 106 99 102 114 102 99 120 124 114 105 96 87 80 69 55 64 74 80 87 88 86 82 81 77 76 77 74 71 72 72 72 70 69 71 72 72 69 70 74 77
115 97 79 76 108 51 45 68 69 89 99 90 103 131 162 167 126 103 90 82 78 70 64 56 52 59 58 61 79 83 79 75 67 61 64 62 58 56 57 61 63 66 70 72 73 71 73 75 76
87 76 109 176 162 164 104 92 52 54 92 69 65 126 143 129 119 110 99 77 75 77 48 57 46 48 48 52 68 65 63 60 56 52 54 51 45 43 44 50 58 67 73 75 78 76 76 76 73
77 107 191 204 171 150 112 112 126 86 73 75 80 86 111 123 129 135 140 148 151 152 306 91 77 55 49 55 61 56 52 52 54 50 49 50 48 41 48 50 56 62 68 73 79 80 78 76 71
94 146 184 64 131 125 114 104 114 120 120 176 158 144 132 132 139 150 161 165 181 194 204 152 130 85 67 55 63 58 54 53 52 50 52 54 52 46 50 50 47 53 61 67 75 77 76 77 73
96 63 122 108 108 110 123 115 91 105 195 159 149 143 141 148 158 166 170 174 177 171 178 168 143 124 94 78 73 75 68 63 56 50 58 69 62 51 56 57 54 60 68 74 76 82 80 78 75
82 43 48 77 84 97 95 88 109 49 74 110 122 130 146 157 169 177 173 168 165 169 174 175 149 136 119 98 79 78 76 80 77 69 67 82 83 74 72 68 68 72 79 82 84 85 81 76 73
116 75 58 56 70 74 98 72 85 91 108 113 131 147 166 176 177 171 171 167 165 170 174 164 145 136 128 120 104 85 83 79 75 72 85 98 99 94 85 73 75 79 86 89 90 88 85 79 76
91 69 42 37 72 92 98 36 333 173 130 134 160 169 180 190 180 181 185 178 176 174 162 157 151 131 129 124 111 95 84 82 78 80 97 110 113 105 97 88 84 87 97 97 92 85 82 82 77
61 61 35 317 82 117 114 249 262 164 149 166 185 190 199 205 197 194 186 177 171 162 155 156 154 136 129 118 106 91 83 81 78 86 96 107 114 117 108 101 95 98 101 100 97 88 86 78 74
44 78 245 305 197 134 145 232 246 169 167 188 203 209 212 218 219 201 187 176 168 166 153 143 138 133 129 117 101 88 82 77 76 81 84 99 106 114 113 108 104 108 103 99 105 87 93 93 84
200 185 219 245 234 142 180 245 256 192 196 211 215 217 218 220 223 204 186 170 162 154 144 142 137 129 120 106 91 74 61 55 60 66 71 83 97 109 109 108 107 111 104 94 97 96 82 88 93
158 165 211 250 233 164 209 243 256 211 210 228 225 219 219 227 228 196 178 159 148 145 145 152 153 148 132 116 115 108 94 50 47 57 64 73 88 104 109 114 110 114 113 118 115 107 96 85 92
156 177 246 307 4 169 233 267 264 215 211 218 217 214 210 211 203 193 177 167 167 167 164 161 164 160 159 152 141 132 123 96 63 49 54 60 77 92 111 118 120 119 113 110 116 118 115 104 84
192 188 209 229 11 35 33 317 289 262 232 228 221 213 206 200 200 196 181 183 175 176 177 175 173 166 165 150 120 93 71 53 40 31 22 30 71 89 105 117 122 121 127 139 142 140 131 138 75
232 218 183 166 108 299 131 290 287 265 265 246 235 218 214 212 199 189 186 187 189 190 179 170 167 161 154 150 151 148 141 148 184 156 38 35 63 84 99 110 116 120 126 135 152 143 133 136 136
204 149 133 148 143 329 315 221 286 282 257 251 237 224 218 209 197 193 194 194 191 180 172 168 158 155 148 152 160 152 146 154 137 101 79 46 40 64 86 102 109 114 122 134 127 120 117 127 139
129 71 55 53 76 286 232 194 279 243 230 243 233 225 219 208 199 198 192 179 177 169 165 164 164 167 161 159 158 159 159 154 145 144 131 86 44 39 64 90 103 109 116 127 133 122 114 115 118
92 96 40 1 354 258 239 196 252 252 231 224 226 224 216 201 192 189 184 181 181 178 178 174 173 176 172 169 169 168 166 161 164 166 168 163 140 78 52 89 100 101 111 116 117 109 105 114 117
160 143 161 200 228 278 294 238 258 271 275 243 221 212 197 188 193 196 194 190 187 185 182 179 181 180 174 174 179 173 164 159 168 173 173 177 178 179 158 128 117 113 114 112 112 106 109 108 110
138 166 168 146 184 278 283 287 302 318 5 26 75 160 198 201 197 197 194 188 187 186 187 184 180 178 177 177 172 171 171 170 176 174 167 168 170 160 144 136 124 114 112 113 113 108 110 105 101
144 144 108 126 162 258 296 282 266 285 288 298 274 238 235 216 201 196 192 193 192 189 184 180 179 182 180 175 178 178 178 177 175 167 170 173 171 147 137 126 123 114 110 111 107 105 114 110 101
122 124 126 134 158 165 262 274 237 238 234 224 239 247 238 222 204 197 195 189 182 174 172 177 179 176 176 178 174 166 168 166 166 170 175 174 162 152 151 148 135 126 119 118 114 111 116 114 103
174 167 152 162 215 183 202 265 287 258 237 216 229 249 235 210 203 193 188 173 171 175 178 182 183 182 186 180 167 168 163 159 165 170 166 158 158 160 157 148 140 139 133 128 128 130 127 126 130
Height
1509 1509 1510 1511 1513 1522 1525 1521 1517 1517 1517 1519 1518 1518 1520 1524 1527 1532 1529 1527 1528 1528 1528 1528 1528 1528 1528 1527 1527 1527 1527 1527 1527 1527 1527 1528 1528 1529 1529 1530 1530 1530 1530 1530 1530 1531 1531 1531 1530
1510 1510 1511 1511 1520 1531 1528 1520 1518 1518 1518 1519 1519 1521 1522 1524 1526 1527 1527 1528 1529 1529 1529 1529 1529 1529 1529 1529 1529 1529 1528 1528 1529 1529 1529 1529 1530 1530 1531 1531 1531 1532 1532 1532 1532 1532 1532 1532 1532
1510 1511 1512 1514 1523 1529 1526 1519 1518 1519 1519 1520 1521 1523 1524 1526 1527 1528 1528 1529 1529 1530 1530 1530 1531 1530 1531 1531 1530 1530 1530 1530 1531 1531 1531 1531 1532 1532 1532 1533 1533 1533 1533 1534 1534 1534 1534 1534 1534
1511 1513 1513 1519 1524 1522 1520 1518 1518 1519 1520 1521 1522 1525 1526 1528 1528 1529 1529 1530 1531 1531 1531 1532 1532 1532 1532 1532 1532 1532 1532 1532 1533 1533 1533 1534 1534 1534 1534 1535 1535 1535 1535 1535 1536 1536 1536 1536 1536
1512 1513 1519 1525 1524 1521 1519 1518 1519 1519 1521 1523 1523 1526 1528 1529 1530 1530 1531 1532 1532 1533 1533 1533 1533 1534 1534 1534 1534 1534 1535 1535 1535 1535 1535 1536 1536 1536 1536 1536 1537 1537 1537 1537 1537 1537 1538 1538 1538
1513 1514 1527 1531 1526 1521 1520 1520 1520 1521 1522 1524 1525 1527 1529 1531 1531 1532 1533 1534 1534 1535 1535 1535 1535 1535 1535 1536 1536 1536 1536 1537 1537 1537 1537 1537 1538 1538 1538 1538 1538 1539 1538 1539 1539 1539 1539 1539 1539
1515 1519 1526 1527 1527 1524 1521 1521 1521 1522 1523 1525 1526 1528 1530 1531 1532 1533 1534 1535 1536 1536 1537 1537 1537 1537 1537 1538 1538 1538 1538 1539 1539 1539 1539 1539 1539 1540 1540 1540 1540 1540 1540 1540 1541 1541 1541 1541 1541
1514 1519 1526 1528 1527 1525 1522 1522 1523 1523 1525 1526 1527 1528 1530 1532 1533 1534 1536 1537 1538 1538 1538 1539 1539 1539 1539 1540 1540 1540 1541 1541 1541 1541 1541 1541 1541 1541 1541 1542 1542 1541 1542 1542 1542 1542 1542 1542 1542
1515 1524 1529 1527 1526 1524 1522 1523 1524 1525 1525 1526 1527 1528 1530 1532 1534 1535 1537 1538 1539 1539 1540 1540 1541 1541 1542 1542 1542 1542 1543 1543 1543 1543 1543 1543 1543 1543 1543 1543 1543 1543 1543 1543 1543 1544 1544 1543 1543
1516 1526 1525 1521 1521 1522 1523 1523 1524 1525 1527 1528 1528 1529 1531 1533 1535 1536 1537 1539 1540 1541 1542 1542 1543 1543 1544 1544 1544 1544 1544 1544 1544 1544 1545 1545 1545 1545 1544 1544 1544 1544 1544 1545 1545 1545 1545 1545 1545
1517 1522 1521 1520 1520 1521 1523 1524 1524 1526 1528 1528 1528 1530 1532 1534 1535 1537 1539 1540 1541 1542 1543 1544 1544 1545 1545 1546 1546 1546 1546 1546 1546 1546 1546 1546 1546 1546 1546 1546 1546 1546 1546 1546 1546 1547 1546 1546 1546
1519 1520 1520 1520 1521 1522 1523 1524 1526 1526 1527 1528 1529 1530 1532 1534 1536 1538 1539 1541 1542 1543 1544 1545 1546 1546 1547 1547 1547 1548 1548 1548 1548 1548 1548 1548 1548 1547 1547 1548 1547 1547 1547 1548 1548 1548 1548 1548 1548
1520 1520 1521 1521 1522 1523 1524 1525 1526 1527 1528 1529 1530 1532 1533 1535 1537 1538 1540 1541 1543 1544 1545 1546 1547 1547 1548 1548 1549 1549 1549 1549 1549 1549 1549 1549 1549 1549 1549 1549 1549 1549 1549 1549 1549 1550 1549 1549 1549
1521 1521 1522 1522 1523 1524 1525 1527 1528 1529 1529 1530 1531 1533 1534 1535 1537 1539 1540 1541 1543 1544 1545 1547 1547 1548 1549 1549 1550 1550 1550 1550 1550 1550 1551 1551 1551 1551 1551 1551 1551 1551 1551 1551 1551 1551 1551 1551 1551
1521 1523 1524 1524 1524 1525 1527 1530 1529 1529 1530 1531 1532 1533 1534 1536 1537 1538 1540 1541 1543 1544 1546 1547 1548 1549 1550 1550 1551 1551 1551 1551 1551 1551 1552 1552 1552 1552 1552 1552 1552 1552 1552 1552 1553 1553 1553 1553 1553
1522 1527 1532 1527 1525 1526 1531 1536 1529 1529 1530 1531 1532 1533 1534 1536 1537 1538 1540 1541 1543 1544 1546 1547 1548 1549 1550 1551 1551 1552 1552 1552 1552 1552 1553 1553 1553 1553 1553 1554 1554 1554 1554 1554 1554 1554 1554 1554 1554
1530 1536 1534 1530 1526 1526 1530 1533 1529 1529 1530 1530 1531 1533 1534 1535 1536 1538 1539 1541 1543 1544 1546 1547 1548 1549 1550 1551 1552 1552 1552 1553 1553 1553 1553 1554 1554 1554 1555 1555 1555 1556 1556 1556 1556 1556 1556 1556 1556
1535 1535 1534 1533 1527 1528 1531 1531 1528 1529 1530 1530 1531 1532 1533 1534 1535 1537 1539 1541 1542 1544 1545 1547 1548 1549 1550 1551 1552 1553 1553 1553 1553 1554 1554 1554 1555 1555 1555 1556 1556 1556 1557 1557 1557 1557 1557 1557 1557
1528 1532 1534 1531 1526 1528 1531 1531 1529 1528 1529 1529 1530 1531 1532 1533 1535 1536 1538 1540 1541 1543 1544 1546 1547 1548 1550 1551 1552 1552 1553 1553 1554 1554 1554 1555 1555 1555 1556 1556 1556 1557 1557 1558 1558 1559 1559 1559 1559
1527 1532 1533 1530 1526 1528 1531 1531 1528 1527 1527 1527 1528 1528 1529 1531 1533 1535 1536 1538 1540 1542 1544 1545 1546 1548 1549 1550 1551 1552 1553 1554 1554 1554 1555 1555 1555 1556 1556 1556 1557 1557 1558 1558 1559 1560 1560 1560 1560
1528 1531 1531 1532 1529 1528 1531 1534 1529 1525 1525 1526 1526 1526 1528 1529 1531 1533 1535 1537 1539 1541 1542 1544 1546 1547 1548 1550 1551 1552 1553 1554 1554 1555 1555 1555 1555 1556 1556 1557 1557 1558 1558 1559 1559 1560 1560 1560 1561
1530 1524 1526 1529 1535 1540 1536 1546 1532 1526 1525 1523 1523 1524 1525 1527 1529 1531 1533 1535 1537 1539 1541 1543 1545 1546 1548 1549 1550 1551 1552 1553 1554 1554 1555 1555 1556 1556 1557 1557 1558 1558 1559 1559 1560 1560 1560 1561 1561
1525 1522 1525 1529 1535 1541 1539 1545 1537 1527 1526 1522 1520 1520 1522 1524 1526 1528 1531 1533 1535 1538 1540 1542 1544 1545 1547 1548 1550 1551 1551 1552 1553 1554 1554 1555 1555 1556 1556 1557 1557 1558 1559 1559 1560 1560 1560 1561 1561
1521 1526 1530 1535 1540 1549 1540 1544 1540 1530 1523 1518 1516 1517 1519 1521 1524 1526 1529 1532 1534 1537 1539 1541 1542 1544 1546 1547 1548 1550 1551 1552 1552 1553 1554 1554 1555 1555 1556 1557 1557 1558 1558 1559 1559 1560 1560 1560 1560
1524 1536 1548 1550 1555 1551 1538 1540 1535 1518 1515 1513 1513 1514 1516 1518 1521 1524 1527 1529 1531 1534 1537 1539 1541 1542 1544 1546 1547 1549 1550 1551 1552 1552 1553 1554 1554 1555 1556 1556 1557 1557 1558 1558 1559 1559 1559 1559 1559
1526 1532 1548 1555 1555 1549 1539 1540 1526 1513 1511 1510 1511 1512 1514 1516 1519 1521 1524 1526 1529 1532 1534 1537 1539 1541 1543 1545 1546 1548 1549 1550 1551 1552 1552 1553 1554 1555 1555 1556 1556 1557 1557 1558 1558 1558 1559 1559 1559
1526 1532 1532 1543 1545 1548 1543 1533 1520 1511 1510 1510 1511 1511 1513 1515 1517 1519 1521 1524 1527 1529 1532 1535 1537 1539 1541 1543 1545 1547 1548 1549 1550 1551 1552 1553 1553 1554 1555 1555 1556 1556 1557 1557 1557 1557 1558 1558 1559
1520 1526 1537 1543 1551 1554 1544 1537 1530 1516 1513 1512 1511 1511 1512 1513 1515 1517 1520 1522 1525 1527 1530 1533 1536 1538 1540 1542 1544 1545 1547 1548 1549 1550 1551 1552 1553 1553 1554 1554 1555 1555 1556 1556 1556 1557 1557 1558 1558
1524 1527 1532 1540 1543 1550 1551 1540 1516 1514 1511 1511 1511 1511 1511 1513 1514 1516 1518 1520 1523 1525 1528 1531 1534 1536 1538 1540 1542 1544 1545 1547 1548 1549 1550 1551 1552 1552 1553 1553 1554 1555 1555 1555 1555 1556 1556 1557 1557
1517 1522 1529 1540 1543 1544 1547 1538 1511 1510 1509 1509 1509 1510 1511 1512 1513 1515 1517 1519 1521 1523 1526 1529 1531 1534 1536 1538 1540 1542 1543 1545 1546 1547 1548 1549 1550 1551 1552 1552 1553 1553 1554 1554 1555 1555 1556 1556 1556